AirNav   Get $300 off a Bose A20
 
 1662 users online  

KSLI Los Alamitos Army Airfield
Los Alamitos, California, USA

GOING TO LOS ALAMITOS?


FAA INFORMATION EFFECTIVE 25 APRIL 2019

Location

FAA Identifier: SLI
Lat/Long: 33-47-24.1080N / 118-03-05.1120W
33-47.401800N / 118-03.085200W
33.7900300 / -118.0514200
(estimated)
Elevation: 35.5 ft. / 10.8 m (surveyed)
Variation: 12E (2020)
From city: 1 mile SE of LOS ALAMITOS, CA
Time zone: UTC -7 (UTC -8 during Standard Time)
Zip code: 90720

Airport Operations

Airport use: Private use. Permission required prior to landing
Activation date: 04/1944
Control tower: yes
ARTCC: LOS ANGELES CENTER
FSS: HAWTHORNE FLIGHT SERVICE STATION
NOTAMs facility: SLI (NOTAM-D service available)
Attendance: TUE-THU 1400-0500Z++, ALL FRI 1400-0200Z++, ALL SAT-SUN 1530-2300Z++, ALL MON 1400-0200Z++
CLSD HOL. RSTD: PPR CTC AFLD OPS DSN 972-2571, C562-795-2571; HTTP://WWW.CALGUARD.CA.GOV/AA-LOSAI.
Segmented circle: no
Lights: SS-SR
Beacon: white-white-green (lighted military airport)
Operates sunset to sunrise.

Airport Communications

ATIS: 118.875 379.975
LOS ALAMITOS GROUND: 126.95 257.95 [1500-0500Z++ TUE-THU, 1600-0000Z++ FRI-MON; CLSD HOL]
LOS ALAMITOS TOWER: 123.85 251.15 [1500-0500Z++ TUE-THU, 1600-0000Z++ FRI-MON; CLSD HOL]
SOCAL APPROACH: 125.35
SOCAL DEPARTURE: 125.35
AR OPS: 139.05 230.9
EMERG: 243.0
HAWWC DP: 125.35
OPS: 126.2 AFLD OPS ADVSY SVC 233.8 ARNG AASF 237.2 AFLD OPS ADVSY SVC 41.5 ARNG AASF
RADAR: 124.75 127.95 230.8 231.0 234.1
WX ASOS at LGB (5 nm W): PHONE 562-424-0572
WX ASOS at FUL (6 nm NE): PHONE 714-870-1372
WX AWOS-3PT at CPM (11 nm NW): 127.150 (310-631-4958)
WX ASOS at SNA (11 nm SE): PHONE 714-424-0590
WX ASOS at HHR (16 nm NW): PHONE 310-973-8930
WX AWOS-3PT at EMT (18 nm N): 118.75 ((626) 444-1107)
WX ASOS at LAX (20 nm NW): PHONE 310-568-1486
  • FOR CLNC DEL WHEN ATCT CLSD CALL SOCAL APCH (800) 448-3724.

Nearby radio navigation aids

VOR radial/distance  VOR name  Freq  Var
SLI at fieldSEAL BEACH VORTAC115.7015E
ELBr279/17.4EL TORO VOR/DME117.2014E
LAXr099/20.8LOS ANGELES VORTAC113.6015E
POMr202/21.7POMONA VORTAC110.4015E
SMOr108/24.1SANTA MONICA VOR/DME110.8015E
PDZr238/27.1PARADISE VORTAC112.2015E
SXCr021/31.0SANTA CATALINA VORTAC111.4015E
RALr238/(31.6)RIVERSIDE VOR112.4014E
VNYr125/34.0VAN NUYS VOR/DME113.1015E

Airport Services

Fuel available: A1+ JET-B+
Oil available: AFLD OPS ADVSY 126.2/237.2 WHEN LOS ALAMITOS TWR CLSD.

Runway Information

Runway 4R/22L

Dimensions: 7999 x 200 ft. / 2438 x 61 m
Surface: asphalt/concrete
Weight bearing capacity: 
PCN 36 /R/C/W/T
Runway edge lights: high intensity
HIRL ELEV 1' AND LCTD 5' FR EDGE OF RWY.
RUNWAY 4R  RUNWAY 22L
Latitude: 33-47.026767N33-47.783300N
Longitude: 118-03.613500W118-02.319133W
Elevation: 21.2 ft.35.5 ft.
Traffic pattern: leftleft
Visual slope indicator: 4-light PAPI on left (3.00 degrees glide path)
Approach lights: SALSF
Runway end identifier lights: noyes
Centerline lights: yesyes
Touchdown point: yes, no lightsyes, no lights

Runway 4L/22R

Dimensions: 5901 x 150 ft. / 1799 x 46 m
Surface: PEM
Weight bearing capacity: 
PCN 36 /F/C/W/T
Runway edge lights: medium intensity
RUNWAY 4L  RUNWAY 22R
Latitude: 33-47.118333N33-47.676383N
Longitude: 118-03.723767W118-02.768750W
Elevation: 20.0 ft.26.9 ft.
Traffic pattern: leftleft
Touchdown point: yes, no lightsyes, no lights

Airport Ownership and Management from official FAA records

Ownership: U.S. Army
Owner: US ARMY
AASF, CAARNG, 4612 DOOLITTLE AVE
LOS ALAMITOS, CA 90720
Phone 562-795-2571
Manager: BASE OPS
LOS ALAMITOS, CA 90720
Phone 562-795-2571

Additional Remarks

RWY-LGTS: RWY 22L - SF.
MISC - WINDS ARE ACCURATE TO WITHIN PLUS OR MINUS 4 KNOTS.
MISC: TO EXCEED WT BRG CAP CTC AFLD OPS. SEE FLIP AP/1 RTE AND AREA RSTD AND SUPPLEMENT ARPT RMK.
ARNG AASF OPS- OPR 1530-2330Z++ MON-FRI; EXC HOL. DSN 972-2006, C562-795-2006. HTTP://WWW.CALGUARD.CA.GOV/AASF1.
RSTD: FOR SPECIAL AFTER HRS LNDG AND AFLD LIGHTING REQUESTS FOR ACFT WEIGHING UNDER 14,500 LBS, CALL AFLD OPS AT 562-795-2571.
RWY-17/35 CLSD (2500X150 ASP).
JASU - 4(E3) 2(AGPU) 2(AM32A-60B-WO DC PWR).
FUEL - J8
NS ABTMT - PRO IN EFF. ALL DEP RQR BRIEFINGS.

Instrument Procedures

NOTE: All procedures below are presented as PDF files. If you need a reader for these files, you should download the free Adobe Reader.

NOT FOR NAVIGATION. Please procure official charts for flight.
FAA instrument procedures published for use from 25 April 2019 at 0901Z to 23 May 2019 at 0900Z.

 
STARs - Standard Terminal Arrivals
KAYOH SEVEN   download (303KB)
 
IAPs - Instrument Approach Procedures
RNAV (GPS) RWY 22L   download (53KB)
VOR OR TACAN RWY 22L   download (141KB)
Radar Approach Procedures available   download (74KB)
 
Departure Procedures
HAWWC THREE (RNAV)   download (172KB)
NOTE: Special Take-Off Minimums/Departure Procedures apply   download (215KB)

Other nearby airports with instrument procedures:

KLGB - Long Beach Airport (Daugherty Field) (5 nm W)
KFUL - Fullerton Municipal Airport (6 nm NE)
KSNA - John Wayne-Orange County Airport (11 nm SE)
KTOA - Zamperini Field Airport (14 nm W)
KHHR - Jack Northrop Field/Hawthorne Municipal Airport (16 nm NW)
KEMT - San Gabriel Valley Airport (18 nm N)
KLAX - Los Angeles International Airport (20 nm NW)
 
Loc | Ops | Rwys | IFR | FBO | Links
Com | Nav | Svcs | Stats | Notes

San Bernardino International Airport Authority
 
Area around KSLI (Los Alamitos Army Airfield)
 
Road maps at: MapQuest Bing Google
 
Aerial photo
WARNING: Photo may not be current or correct
Aerial photo of KSLI (Los Alamitos Army Airfield)
Photo courtesy of FocalFlight.com
Photo taken 01-Nov-2015
looking north.

Do you have a better or more recent aerial photo of Los Alamitos Army Airfield that you would like to share? If so, please send us your photo.

 
Sectional chart

 
Airport diagram
Diagram of KSLI (Los Alamitos Army Airfield)
Download PDF
of official airport diagram from the FAA

 
Airport distance calculator
Flying to Los Alamitos Army Airfield? Find the distance to fly.

From to KSLI

Sunrise and sunset
Times for 21-May-2019
 Local
(UTC-7)
 Zulu
(UTC)
Morning civil twilight05:2012:20
Sunrise05:4812:48
Sunset19:4902:49
Evening civil twilight20:1703:17

Current date and time
Zulu (UTC)  21-May-2019 19:48:51
Local (UTC-7)  21-May-2019 12:48:51
 
METAR
KSLI 
2nm SE 
211858Z 22019G23KT 10SM SCT055 19/10 A2989 RMK AO2A SLP125 T01930095
KLGB 
5nm W 
211853Z 22010G18KT 10SM FEW040 SCT047 18/08 A2989 RMK AO2 SLP122 T01780083
KFUL 
6nm NE 
211853Z 18010KT 10SM FEW033 SCT043 BKN050 18/09 A2988 RMK AO2 SLP117 T01830089
KSNA 
12nm SE 
211853Z 21011KT 10SM FEW024 SCT035 SCT120 18/09 A2991 RMK AO2 SLP129 T01780089
KTOA 
13nm W 
211847Z 24018G24KT 10SM FEW019 SCT030 18/09 A2990
KHHR 
16nm NW 
211853Z 26013KT 10SM CLR 18/08 A2990 RMK AO2 SLP125 T01780083
KEMT 
17nm N 
211845Z 21005KT 10SM SCT035 BKN039 17/09 A2988
KCQT 
18nm NW 
211847Z AUTO 10SM CLR 19/09 A2988 RMK AO2 SLP115 T01940094 $
KLAX 
19nm NW 
211853Z 25014KT 9SM FEW018 FEW030 SCT160 17/11 A2991 RMK AO2 SLPNO T01670106 PNO VISNO RWY24 $
TAF
KSLI 
2nm SE 
211714Z 2117/2219 26009KT 9999 SCT015 BKN030 QNH2974INS BECMG 2118/2119 26012G18KT 9999 SCT015 BKN030 QNH2974INS TEMPO 2119/2203 26015G25KT 510009 BECMG 2203/2204 26012G18KT 9999 BKN040 QNH2974INS BECMG 2206/2207 VRB06KT 9999 SCT030 BKN050 QNH2970INS TX17/2121Z TN14/2212Z
KLGB 
5nm W 
211747Z 2118/2218 20006KT P6SM SCT050 FM212000 25014G22KT P6SM SCT050 BKN200 FM220200 30015G25KT P6SM SCT050 BKN200 FM220800 31008KT P6SM SCT050 BKN200 FM221600 VRB03KT P6SM SCT050
KSNA 
12nm SE 
211720Z 2118/2218 22011G20KT P6SM SCT025 BKN040 TEMPO 2118/2122 BKN025 FM220300 26007KT P6SM BKN030 FM220900 23008G15KT P6SM SCT050
KLAX 
19nm NW 
211747Z 2118/2224 27009KT P6SM FEW019 SCT030 BKN140 FM212100 27020G30KT P6SM FEW025 SCT050 FM220300 28014G22KT P6SM SCT050 BKN200 FM220900 29010KT P6SM SCT050 BKN200 FM221600 35008KT P6SM SCT050 FM222000 26015KT P6SM SKC FM222200 26015G25KT P6SM SKC
NOTAMs
Click for the latest NOTAMs
NOTAMs are issued by the DoD/FAA and will open in a separate window not controlled by AirNav.

 

 
 

Would you like to see your business listed on this page?

 If your business provides an interesting product or service to pilots, flight crews, aircraft, or users of the Los Alamitos Army Airfield, you should consider listing it here.  To start the listing process, click on the button below
 
Add a business
 

Other Pages about Los Alamitos Army Airfield

www.aircav.com/sli.html
 
Update a link
 
Copyright © AirNav, LLC. All rights reserved. Privacy Policy  Contact